[[{"header":{"parameterUnit":"m.s-1","parameterCategory":2,"la1":30.2991,"la2":30.254,"lo1":-89.0895,"lo2":-89.0444,"dy":0.0017,"dx":0.0017,"nx":28,"ny":28,"refTime":"2025-01-26T09:00:00:Z","depth":"0","parameterNumber":2,"parameterNumberName":"U-component_of_CURRENTS"},"data":[0,0,0,0,0,0,0,0,0,0,0,0,0,0,0,0,0,0,0,0,0,0,0,0,0,0,0,0,0,0,0,0,0,0,0,0,0,0,0,0,0,0,0,0,0,0,0,0,0,0,0,0,0,0,0,0,0,0,0.1413,0.1413,0,0.1417,0.1417,0.1417,0.1407,0.1407,0.1407,0.1407,0.1374,0.1373,0.1373,0,0,0,0,0,0,0,0,0,0,0,0,0,0.1383,0.1383,0.1413,0.1413,0.1413,0.1417,0.1417,0.1417,0.1407,0.1407,0.1407,0.1407,0.1375,0.1374,0.1373,0,0,0,0,0,0,0,0,0,0,0,0,0,0.139,0.1384,0.1413,0.1411,0.1411,0.1417,0.1417,0.1417,0.1407,0.1407,0.1407,0.1407,0.1375,0.1374,0.1372,0.1367,0,0,0.1369,0.1368,0,0,0,0,0,0,0,0,0.139,0.1391,0.1411,0.1411,0.1411,0.1414,0.1395,0.1399,0.1407,0.1406,0.1407,0.1407,0.1386,0.1384,0.1382,0.1366,0.1364,0.1369,0.1368,0.1367,0.1367,0,0,0,0,0,0,0,0.1389,0.1391,0.1412,0.1411,0.1411,0.1406,0.1406,0.1396,0.1394,0.1406,0.1406,0.1411,0.1385,0.1383,0.1381,0.1364,0.1369,0.1368,0.1367,0.1366,0.137,0.1371,0,0,0,0,0,0,0.1395,0.139,0.1412,0.1412,0.1403,0.1407,0.1407,0.1411,0.1395,0.1393,0.1411,0.141,0.1385,0.1382,0.1379,0.1405,0.1367,0.1366,0.1366,0.1369,0.137,0.1371,0,0,0,0,0,0,0.1394,0.1397,0.1412,0.1403,0.1405,0.1408,0.1412,0.1411,0.1414,0.1399,0.1396,0.1415,0.1385,0.1381,0.1381,0.1402,0.1366,0.1365,0.1368,0.137,0.1371,0.1435,0,0,0,0,0,0,0.1393,0.1396,0.1398,0.1404,0.1406,0.1423,0.1412,0.1411,0.1418,0.1418,0.1402,0.1398,0.1384,0.1383,0.138,0.14,0.1364,0.1367,0.1369,0.137,0.1432,0.1438,0.1444,0,0,0,0,0,0.1392,0.1396,0.1398,0.1401,0.1409,0.1423,0.1424,0.1423,0.1419,0.1424,0.1416,0.1399,0.139,0.1382,0.1378,0.1399,0.1367,0.1368,0.137,0.1429,0.1437,0.1444,0,0,0,0,0,0,0.1378,0.1396,0.1398,0.1405,0.1418,0.1423,0.1427,0.1428,0.1426,0.1424,0.1407,0.1403,0.1412,0.1395,0.1387,0.1405,0.1377,0.1378,0.1423,0.143,0.1436,0.1432,0.1363,0,0,0,0,0,0.1379,0.1388,0.1403,0.1409,0.1417,0.1423,0.1428,0.1431,0.1433,0.1432,0.1423,0.1415,0.1415,0.1414,0.1406,0.1414,0.1432,0.1425,0.1432,0.1437,0.1431,0.1483,0.1493,0.1377,0.1377,0.1377,0,0,0.1372,0.1385,0.1388,0.1407,0.1415,0.1429,0.1425,0.1438,0.1448,0.1428,0.1434,0.1433,0.1421,0.1434,0.1436,0.1423,0.1486,0.1439,0.1444,0.1435,0.1486,0.1497,0.1507,0.1379,0.1378,0.1378,0,0,0.137,0.138,0.1389,0.1404,0.1426,0.1434,0.1441,0.1454,0.1459,0.147,0.1462,0.1474,0.1467,0.1471,0.147,0.1502,0.1515,0.1503,0.1532,0.1583,0.1594,0.1603,0.1675,0.169,0.1508,0.1508,0.1508,0,0.1359,0.1374,0.1393,0.141,0.1422,0.1438,0.1451,0.1462,0.1472,0.1488,0.1478,0.1499,0.1485,0.1514,0.1523,0.1516,0.1556,0.1509,0.1593,0.1602,0.161,0.1682,0.1698,0.1512,0.1511,0.1511,0.1511,0,0.1369,0.138,0.1388,0.1416,0.1434,0.1447,0.1472,0.1492,0.1504,0.1519,0.1553,0.1547,0.1566,0.1567,0.155,0.1604,0.162,0.1597,0.1579,0.1626,0.1699,0.1714,0.1516,0.1515,0.1514,0.1513,0,0,0.1335,0.1384,0.1383,0.1398,0.1437,0.1451,0.1485,0.1522,0.1552,0.1572,0.1617,0.1618,0.1634,0.1633,0.163,0.1661,0.1758,0.1655,0.1656,0.1734,0.1902,0.1919,0.1937,0.176,0.1762,0.1764,0.1943,0,0.133,0.1356,0.1387,0.141,0.1424,0.1466,0.1498,0.154,0.1574,0.1624,0.1649,0.1682,0.1656,0.1676,0.1709,0.1743,0.1796,0.1713,0.1837,0.1841,0.1855,0.1953,0.196,0.212,0.1958,0.196,0.1962,0,0.132,0.1341,0.1362,0.1414,0.1426,0.1447,0.1513,0.1546,0.1628,0.1661,0.1717,0.1746,0.1809,0.1769,0.1879,0.1835,0.1873,0.1895,0.1902,0.1898,0.1884,0.2038,0.2154,0.2111,0.1986,0.1984,0.1982,0,0.1275,0.1319,0.1334,0.1349,0.1414,0.1439,0.1476,0.1553,0.1588,0.169,0.1733,0.1823,0.1861,0.1934,0.1983,0.195,0.2104,0.2068,0.2126,0.2129,0.2145,0.2145,0.2234,0.2147,0.2147,0.2146,0.2146,0,0.1243,0.1252,0.1314,0.1319,0.1346,0.141,0.1452,0.151,0.1599,0.1657,0.1744,0.1809,0.1899,0.1993,0.2041,0.215,0.2166,0.2159,0.2181,0.2171,0.2171,0.2138,0.2099,0.2153,0.2152,0.215,0.2149,0,0.1176,0.1217,0.1239,0.1305,0.132,0.1339,0.1412,0.1447,0.1547,0.163,0.1668,0.1814,0.1962,0.2058,0.2187,0.2217,0.2276,0.2339,0.2333,0.235,0.2354,0.2319,0.2339,0.2212,0.2466,0.2468,0.2469,0,0.1134,0.1143,0.1206,0.1209,0.123,0.1268,0.1291,0.1397,0.145,0.1633,0.1675,0.1847,0.1976,0.22,0.2328,0.2482,0.2338,0.2517,0.2436,0.2385,0.2362,0.2235,0.2114,0.2509,0.251,0.2512,0.2513,0,0.1049,0.1085,0.1097,0.1121,0.1137,0.1168,0.1225,0.1262,0.1412,0.1507,0.1672,0.18,0.2078,0.226,0.2452,0.2534,0.242,0.2546,0.25,0.2416,0.2279,0.2157,0.2368,0.2524,0.2523,0.2522,0.2521,0.2521,0.0974,0.0962,0.0993,0.102,0.1036,0.1071,0.1078,0.1173,0.1265,0.1415,0.1596,0.1789,0.2122,0.2433,0.2501,0.2642,0.2517,0.2597,0.2571,0.2455,0.2283,0.2523,0.2681,0.2681,0.2681,0.268,0.268,0,0.0877,0.0878,0.0888,0.0908,0.0924,0.0982,0.103,0.1044,0.1132,0.1338,0.1489,0.1875,0.214,0.2401,0.2688,0.2665,0.2523,0.2604,0.2433,0.231,0.2574,0.2523,0.2645,0.2645,0.2645,0.2645,0.2645,0.2645,0.0814,0.0802,0.0833,0.0823,0.0841,0.0832,0.0861,0.0897,0.1019,0.1233,0.1469,0.1681,0.2161,0.259,0.2726,0.2682,0.2416,0.242,0.2258,0.2489,0.2485,0.248,0.2423,0.2521,0.2521,0.1913,0.1909,0.1906]},{"header":{"parameterUnit":"m.s-1","parameterCategory":2,"la1":30.2991,"la2":30.254,"lo1":-89.0895,"lo2":-89.0444,"dy":0.0017,"dx":0.0017,"nx":28,"ny":28,"refTime":"2025-01-26T09:00:00:Z","depth":"0","parameterNumber":3,"parameterNumberName":"V-component_of_CURRENTS"},"data":[0,0,0,0,0,0,0,0,0,0,0,0,0,0,0,0,0,0,0,0,0,0,0,0,0,0,0,0,0,0,0,0,0,0,0,0,0,0,0,0,0,0,0,0,0,0,0,0,0,0,0,0,0,0,0,0,0,0,-0.0144,-0.0145,0,-0.021,-0.0211,-0.0212,-0.0252,-0.0252,-0.0252,-0.0252,-0.0344,-0.0346,-0.0349,0,0,0,0,0,0,0,0,0,0,0,0,0,-0.0092,-0.0093,-0.0144,-0.0145,-0.0146,-0.021,-0.0211,-0.0212,-0.0252,-0.0252,-0.0252,-0.0252,-0.0343,-0.0346,-0.0349,0,0,0,0,0,0,0,0,0,0,0,0,0,-0.0133,-0.0093,-0.0144,-0.0173,-0.0176,-0.021,-0.0211,-0.0213,-0.0252,-0.0252,-0.0252,-0.0252,-0.0342,-0.0346,-0.0349,-0.0368,0,0,-0.036,-0.0361,0,0,0,0,0,0,0,0,-0.0131,-0.0135,-0.0168,-0.0171,-0.0174,-0.0222,-0.0227,-0.0265,-0.0252,-0.0224,-0.0252,-0.0252,-0.0305,-0.0311,-0.0325,-0.0372,-0.0376,-0.036,-0.0362,-0.0364,-0.0365,0,0,0,0,0,0,0,-0.0128,-0.0133,-0.0171,-0.0168,-0.0172,-0.0196,-0.0201,-0.0234,-0.0264,-0.0227,-0.0229,-0.0235,-0.0307,-0.0321,-0.0327,-0.0377,-0.036,-0.0363,-0.0365,-0.0367,-0.0461,-0.0461,0,0,0,0,0,0,-0.0115,-0.013,-0.0169,-0.0173,-0.0151,-0.0196,-0.0203,-0.0207,-0.0263,-0.0271,-0.0235,-0.0237,-0.0315,-0.0323,-0.033,-0.0356,-0.0364,-0.0367,-0.0369,-0.0461,-0.0461,-0.0461,0,0,0,0,0,0,-0.0114,-0.0118,-0.0167,-0.0152,-0.016,-0.0197,-0.0202,-0.0209,-0.0223,-0.0269,-0.0278,-0.0241,-0.0315,-0.0326,-0.0361,-0.036,-0.0369,-0.0372,-0.046,-0.0461,-0.0461,-0.0408,0,0,0,0,0,0,-0.0112,-0.0117,-0.0117,-0.0151,-0.016,-0.0182,-0.0202,-0.021,-0.0225,-0.0229,-0.0278,-0.0287,-0.0316,-0.0356,-0.0365,-0.0365,-0.0375,-0.046,-0.046,-0.0461,-0.0409,-0.0406,-0.0404,0,0,0,0,0,-0.011,-0.0107,-0.0116,-0.0121,-0.0158,-0.0182,-0.0188,-0.0216,-0.0225,-0.0229,-0.0265,-0.0285,-0.0367,-0.0359,-0.0369,-0.0371,-0.0459,-0.046,-0.0461,-0.041,-0.0407,-0.0404,0,0,0,0,0,0,-0.0083,-0.0111,-0.0123,-0.0128,-0.015,-0.0188,-0.0193,-0.0212,-0.0244,-0.0247,-0.029,-0.0302,-0.0332,-0.0362,-0.0352,-0.0402,-0.0416,-0.0419,-0.0374,-0.0371,-0.0369,-0.0332,-0.0378,0,0,0,0,0,-0.0076,-0.0081,-0.0112,-0.0116,-0.0124,-0.0158,-0.0171,-0.0189,-0.0221,-0.0235,-0.0269,-0.0309,-0.0345,-0.0365,-0.04,-0.0427,-0.0425,-0.0436,-0.0434,-0.0431,-0.0409,-0.0425,-0.0421,-0.0464,-0.0464,-0.0464,0,0,-0.0066,-0.0082,-0.0085,-0.011,-0.013,-0.0137,-0.0166,-0.0181,-0.0186,-0.024,-0.0259,-0.0301,-0.035,-0.038,-0.0397,-0.0404,-0.0415,-0.0432,-0.043,-0.0409,-0.0426,-0.0421,-0.0417,-0.0465,-0.0465,-0.0465,0,0,-0.0048,-0.0062,-0.0061,-0.0076,-0.0101,-0.012,-0.0121,-0.0157,-0.0171,-0.0198,-0.0237,-0.0274,-0.033,-0.0362,-0.0386,-0.0392,-0.0401,-0.041,-0.0368,-0.0385,-0.038,-0.0377,-0.0345,-0.0339,-0.041,-0.041,-0.041,0,-0.0035,-0.0033,-0.0064,-0.0066,-0.0062,-0.0108,-0.0095,-0.0124,-0.0166,-0.0155,-0.0196,-0.0256,-0.0317,-0.0332,-0.0351,-0.0384,-0.0378,-0.0373,-0.0378,-0.0375,-0.0372,-0.0341,-0.0335,-0.0407,-0.0408,-0.0408,-0.0408,0,-0.0018,-0.0013,-0.0012,-0.0024,-0.0027,-0.0025,-0.0056,-0.0059,-0.0083,-0.0102,-0.0118,-0.0202,-0.022,-0.027,-0.0323,-0.0331,-0.0326,-0.0371,-0.0377,-0.0364,-0.0333,-0.0327,-0.0404,-0.0405,-0.0406,-0.0406,0,0,0.0007,0.0004,0.0005,0.0052,0.0005,0.0036,0.0015,0.0024,0.0083,-0.0012,0.0051,-0.0083,-0.0106,-0.0137,-0.0206,-0.0254,-0.0254,-0.0307,-0.031,-0.0259,-0.0248,-0.0232,-0.0224,-0.0301,-0.0301,-0.03,-0.0224,0,0.0036,0.0085,0.0051,0.0122,0.0164,0.0131,0.0155,0.0157,0.0144,0.019,0.0085,0.0108,-0.0061,-0.0042,-0.0131,-0.0204,-0.0241,-0.0267,-0.0282,-0.0281,-0.0257,-0.0219,-0.0244,-0.0177,-0.0218,-0.0218,-0.0217,0,0.0061,0.0112,0.0187,0.0283,0.0302,0.034,0.0439,0.0449,0.0455,0.0447,0.0401,0.0343,0.0263,0.013,-0.0017,-0.0023,-0.0131,-0.0214,-0.0213,-0.021,-0.0256,-0.0205,-0.0166,-0.0362,-0.0209,-0.021,-0.021,0,0.0165,0.0215,0.0311,0.033,0.0408,0.0476,0.0523,0.0552,0.0596,0.0638,0.0676,0.0571,0.0552,0.0379,0.0155,0.0089,0.0019,-0.008,-0.0161,-0.0159,-0.0186,-0.0187,-0.0324,-0.0168,-0.0168,-0.0168,-0.0169,0,0.0225,0.0318,0.0398,0.047,0.0656,0.0646,0.082,0.0847,0.0875,0.0938,0.0837,0.085,0.0604,0.0506,0.028,0.0098,0.0119,-0.0122,-0.0138,-0.0166,-0.0167,-0.0345,-0.0455,-0.0166,-0.0166,-0.0167,-0.0167,0,0.0368,0.036,0.0541,0.0672,0.0718,0.0889,0.0999,0.1098,0.1107,0.1182,0.1196,0.1087,0.0962,0.0736,0.0509,0.0294,0.0017,0.0043,0.0055,0.0036,-0.0245,-0.035,-0.0451,-0.051,-0.0016,-0.0015,-0.0014,0,0.0459,0.0567,0.0757,0.0845,0.0924,0.1113,0.1209,0.1236,0.1278,0.1293,0.1313,0.1257,0.1175,0.091,0.0574,0.0297,0.0067,0.0103,-0.0059,-0.0232,-0.0363,-0.0445,-0.0495,-0.0061,-0.0061,-0.0061,-0.006,0,0.0734,0.0804,0.0946,0.1091,0.122,0.1359,0.1461,0.1508,0.1493,0.1525,0.1496,0.1459,0.1221,0.094,0.0622,0.0378,-0.0021,0.0099,-0.0105,-0.0414,-0.0488,-0.0561,-0.0106,-0.0059,-0.0059,-0.0059,-0.0059,-0.0059,0.0987,0.1118,0.1231,0.1355,0.1456,0.1511,0.1608,0.1634,0.1684,0.1661,0.1624,0.1572,0.1206,0.0752,0.0484,-0.0031,-0.0043,-0.0242,-0.0346,-0.0406,-0.0502,-0.0008,0.0023,0.0023,0.0024,0.0024,0.0024,0,0.1227,0.129,0.1445,0.1536,0.1582,0.1604,0.168,0.172,0.1733,0.1745,0.1719,0.148,0.1036,0.0579,-0.0072,-0.0417,-0.0575,-0.0622,-0.079,-0.0815,-0.04,-0.0445,-0.0486,-0.0486,-0.0486,-0.0485,-0.0485,-0.0485,0.1357,0.1483,0.1476,0.1558,0.1596,0.1647,0.1663,0.1734,0.1749,0.1737,0.1677,0.1649,0.1252,0.01,-0.0684,-0.0861,-0.1148,-0.119,-0.1287,-0.1081,-0.1056,-0.1032,-0.1104,-0.1282,-0.1283,-0.1676,-0.168,-0.1684]}],[{"header":{"parameterUnit":"m.s-1","parameterCategory":2,"la1":30.2991,"la2":30.254,"lo1":-89.0895,"lo2":-89.0444,"dy":0.0017,"dx":0.0017,"nx":28,"ny":28,"refTime":"2025-01-26T09:00:00:Z","depth":"2","parameterNumber":2,"parameterNumberName":"U-component_of_CURRENTS"},"data":[0,0,0,0,0,0,0,0,0,0,0,0,0,0,0,0,0,0,0,0,0,0,0,0,0,0,0,0,0,0,0,0,0,0,0,0,0,0,0,0,0,0,0,0,0,0,0,0,0,0,0,0,0,0,0,0,0,0,0.156,0.1561,0,0.1567,0.1567,0.1567,0.1559,0.1559,0.1559,0.1558,0.1534,0.1534,0.1533,0,0,0,0,0,0,0,0,0,0,0,0,0,0.1532,0.1532,0.156,0.1561,0.1561,0.1567,0.1567,0.1567,0.1559,0.1559,0.1559,0.1558,0.1534,0.1534,0.1533,0,0,0,0,0,0,0,0,0,0,0,0,0,0.154,0.1532,0.156,0.1559,0.1559,0.1567,0.1567,0.1567,0.1559,0.1559,0.1558,0.1558,0.1534,0.1534,0.1533,0.1531,0,0,0.153,0.153,0,0,0,0,0,0,0,0,0.1539,0.1541,0.1559,0.1559,0.1559,0.1564,0.1548,0.1554,0.1559,0.1557,0.1558,0.1558,0.1543,0.1541,0.154,0.153,0.1529,0.153,0.153,0.1529,0.1529,0,0,0,0,0,0,0,0.1539,0.154,0.1561,0.1559,0.156,0.1556,0.1557,0.1549,0.1548,0.1557,0.1557,0.1561,0.1542,0.1541,0.154,0.1529,0.153,0.153,0.1529,0.1529,0.154,0.1541,0,0,0,0,0,0,0.1543,0.154,0.1561,0.1561,0.1551,0.1557,0.1557,0.1561,0.1549,0.1548,0.1561,0.1561,0.1543,0.154,0.1539,0.1563,0.1529,0.1529,0.1528,0.1539,0.154,0.1541,0,0,0,0,0,0,0.1542,0.1545,0.156,0.1552,0.1554,0.1558,0.1561,0.1561,0.1565,0.1553,0.1551,0.1566,0.1542,0.154,0.1542,0.1561,0.1528,0.1528,0.1538,0.154,0.1541,0.1594,0,0,0,0,0,0,0.1542,0.1545,0.1546,0.1553,0.1555,0.1571,0.1562,0.1562,0.1569,0.1568,0.1557,0.1554,0.1542,0.1543,0.1541,0.1559,0.1527,0.1537,0.1539,0.154,0.1591,0.1597,0.1602,0,0,0,0,0,0.154,0.1544,0.1546,0.1549,0.1558,0.1572,0.1573,0.1573,0.1569,0.1574,0.1569,0.1554,0.1551,0.1543,0.154,0.1559,0.1537,0.1538,0.154,0.1589,0.1596,0.1602,0,0,0,0,0,0,0.1526,0.1544,0.1546,0.1553,0.1566,0.1572,0.1575,0.1578,0.1577,0.1576,0.1562,0.156,0.1569,0.1556,0.1548,0.1567,0.1542,0.1544,0.1581,0.1587,0.1592,0.1602,0.1526,0,0,0,0,0,0.1527,0.1536,0.1551,0.1557,0.1565,0.1572,0.1576,0.158,0.1583,0.1583,0.1576,0.1571,0.1574,0.1574,0.1569,0.1578,0.1599,0.1588,0.1594,0.1598,0.1605,0.1655,0.1666,0.1547,0.1547,0.1547,0,0,0.152,0.1533,0.1536,0.1555,0.1563,0.1579,0.1574,0.1586,0.16,0.158,0.1591,0.1587,0.158,0.1592,0.1595,0.1584,0.1648,0.16,0.1604,0.1609,0.1658,0.167,0.168,0.1548,0.1548,0.1548,0,0,0.1517,0.1528,0.1536,0.1553,0.1574,0.1583,0.159,0.1603,0.161,0.1623,0.1616,0.1628,0.1621,0.163,0.1631,0.1662,0.1673,0.1657,0.1694,0.1743,0.1753,0.1763,0.1828,0.1843,0.1661,0.1661,0.1662,0,0.1506,0.1526,0.154,0.1558,0.1579,0.1588,0.161,0.1618,0.163,0.1655,0.1631,0.1659,0.1642,0.1681,0.1685,0.1675,0.171,0.1671,0.1752,0.1761,0.177,0.1835,0.185,0.1664,0.1664,0.1664,0.1663,0,0.1515,0.1534,0.1543,0.1574,0.1596,0.1617,0.1641,0.1662,0.1672,0.1691,0.1729,0.1714,0.1738,0.1731,0.1711,0.1769,0.1778,0.1753,0.1739,0.1786,0.185,0.1866,0.1668,0.1667,0.1666,0.1666,0,0,0.1479,0.1538,0.154,0.1576,0.1613,0.164,0.1672,0.1723,0.1766,0.1769,0.1829,0.1819,0.1826,0.1827,0.1814,0.184,0.1926,0.1821,0.1823,0.1893,0.2059,0.1989,0.1999,0.1919,0.1922,0.1924,0.2088,0,0.1482,0.1533,0.1558,0.1612,0.165,0.1687,0.1726,0.1775,0.1806,0.1862,0.1873,0.1908,0.1859,0.1874,0.1898,0.1916,0.1966,0.1885,0.1997,0.2,0.1938,0.2013,0.1845,0.197,0.2103,0.2106,0.2107,0,0.1477,0.1526,0.1581,0.1672,0.1691,0.1721,0.1817,0.1852,0.1929,0.1957,0.2001,0.2009,0.2055,0.1995,0.2078,0.2032,0.2054,0.2063,0.2069,0.1993,0.1958,0.1939,0.1993,0.2133,0.2131,0.2129,0.2128,0,0.147,0.1541,0.1597,0.1624,0.1717,0.1758,0.1807,0.1886,0.1932,0.202,0.206,0.2122,0.2144,0.2187,0.2185,0.2151,0.2276,0.2236,0.2209,0.2206,0.2077,0.2057,0.2315,0.2314,0.2314,0.2314,0.2313,0,0.147,0.1514,0.1601,0.1637,0.172,0.1777,0.1857,0.1918,0.1996,0.2052,0.2104,0.2147,0.2187,0.2245,0.2254,0.2282,0.2343,0.224,0.2246,0.2091,0.2072,0.2208,0.2193,0.232,0.2318,0.2317,0.2316,0,0.1457,0.1498,0.1583,0.169,0.1718,0.1783,0.1873,0.1924,0.2001,0.2074,0.2102,0.2191,0.2265,0.2311,0.2388,0.2356,0.2398,0.2393,0.2213,0.2193,0.2289,0.2276,0.2408,0.2407,0.2406,0.2405,0.2405,0,0.1461,0.1504,0.1621,0.1657,0.1703,0.1786,0.183,0.1918,0.1957,0.2084,0.2111,0.2216,0.2242,0.235,0.235,0.24,0.2419,0.2257,0.214,0.2308,0.2301,0.2289,0.2276,0.2017,0.2013,0.201,0.2007,0,0.15,0.1537,0.1607,0.1664,0.1713,0.1776,0.1837,0.1863,0.1952,0.1996,0.2058,0.2093,0.2201,0.2158,0.222,0.2218,0.2231,0.2194,0.2446,0.1994,0.1945,0.1935,0.1936,0.198,0.1983,0.1985,0.1986,0.1987,0.1537,0.1575,0.1634,0.1674,0.172,0.1735,0.1746,0.178,0.1808,0.1824,0.1925,0.1913,0.1971,0.1962,0.1952,0.1971,0.2104,0.2013,0.2021,0.2032,0.1933,0.1881,0.1889,0.1891,0.1893,0.1895,0.1896,0,0.1568,0.159,0.163,0.1657,0.1648,0.1698,0.1722,0.1676,0.1641,0.1681,0.1681,0.1572,0.1565,0.1654,0.164,0.1663,0.1632,0.1607,0.1547,0.1577,0.1603,0.1478,0.1316,0.1314,0.1312,0.131,0,0,0.1585,0.1593,0.1576,0.1545,0.1569,0.154,0.1533,0.1461,0.1451,0.1366,0.1349,0.1429,0.1558,0.1376,0.1398,0.1352,0.1441,0.1309,0.1779,0.1735,0.1757,0.1851,0.1694,0,0,0,0,0]},{"header":{"parameterUnit":"m.s-1","parameterCategory":2,"la1":30.2991,"la2":30.254,"lo1":-89.0895,"lo2":-89.0444,"dy":0.0017,"dx":0.0017,"nx":28,"ny":28,"refTime":"2025-01-26T09:00:00:Z","depth":"2","parameterNumber":3,"parameterNumberName":"V-component_of_CURRENTS"},"data":[0,0,0,0,0,0,0,0,0,0,0,0,0,0,0,0,0,0,0,0,0,0,0,0,0,0,0,0,0,0,0,0,0,0,0,0,0,0,0,0,0,0,0,0,0,0,0,0,0,0,0,0,0,0,0,0,0,0,-0.0202,-0.0203,0,-0.026,-0.0261,-0.0261,-0.0296,-0.0296,-0.0296,-0.0296,-0.0377,-0.0379,-0.0381,0,0,0,0,0,0,0,0,0,0,0,0,0,-0.0155,-0.0156,-0.0202,-0.0203,-0.0204,-0.026,-0.0261,-0.0262,-0.0296,-0.0296,-0.0296,-0.0296,-0.0376,-0.0379,-0.0381,0,0,0,0,0,0,0,0,0,0,0,0,0,-0.0191,-0.0156,-0.0202,-0.0227,-0.023,-0.026,-0.0261,-0.0262,-0.0296,-0.0296,-0.0296,-0.0296,-0.0376,-0.0379,-0.0382,-0.0398,0,0,-0.0391,-0.0393,0,0,0,0,0,0,0,0,-0.0189,-0.0193,-0.0223,-0.0225,-0.0228,-0.027,-0.0274,-0.0308,-0.0296,-0.0272,-0.0296,-0.0296,-0.0343,-0.0349,-0.036,-0.0402,-0.0406,-0.0391,-0.0393,-0.0395,-0.0396,0,0,0,0,0,0,0,-0.0187,-0.0191,-0.0226,-0.0223,-0.0227,-0.0246,-0.0251,-0.0281,-0.0307,-0.0274,-0.0276,-0.0281,-0.0345,-0.0357,-0.0362,-0.0407,-0.0391,-0.0394,-0.0396,-0.0397,-0.048,-0.0481,0,0,0,0,0,0,-0.0176,-0.0188,-0.0224,-0.0228,-0.0208,-0.0247,-0.0253,-0.0257,-0.0306,-0.0313,-0.0281,-0.0283,-0.0352,-0.0359,-0.0365,-0.0387,-0.0395,-0.0398,-0.0399,-0.048,-0.048,-0.0481,0,0,0,0,0,0,-0.0175,-0.0179,-0.0222,-0.0209,-0.0216,-0.0247,-0.0252,-0.0258,-0.027,-0.0311,-0.0319,-0.0287,-0.0352,-0.0361,-0.0393,-0.0391,-0.0399,-0.0402,-0.048,-0.048,-0.0481,-0.0432,0,0,0,0,0,0,-0.0173,-0.0178,-0.0177,-0.0208,-0.0216,-0.0235,-0.0252,-0.0259,-0.0273,-0.0276,-0.0319,-0.0327,-0.0353,-0.0388,-0.0396,-0.0395,-0.0404,-0.0479,-0.048,-0.048,-0.0433,-0.0431,-0.0428,0,0,0,0,0,-0.0171,-0.0168,-0.0177,-0.0181,-0.0214,-0.0234,-0.024,-0.0264,-0.0273,-0.0276,-0.0308,-0.0325,-0.0397,-0.0391,-0.04,-0.04,-0.0479,-0.048,-0.048,-0.0434,-0.0431,-0.0429,0,0,0,0,0,0,-0.0146,-0.0172,-0.0182,-0.0187,-0.0207,-0.024,-0.0244,-0.0261,-0.0289,-0.0291,-0.033,-0.034,-0.0367,-0.0393,-0.0384,-0.0427,-0.0441,-0.0443,-0.0402,-0.04,-0.0398,-0.0378,-0.0407,0,0,0,0,0,-0.014,-0.0144,-0.0172,-0.0175,-0.0183,-0.0213,-0.0224,-0.024,-0.0268,-0.028,-0.0311,-0.0346,-0.0378,-0.0395,-0.0426,-0.045,-0.0477,-0.0457,-0.0455,-0.0453,-0.0444,-0.0483,-0.0483,-0.0483,-0.0483,-0.0483,0,0,-0.013,-0.0145,-0.0148,-0.017,-0.0187,-0.0194,-0.022,-0.0232,-0.0239,-0.0285,-0.0303,-0.0339,-0.0383,-0.0408,-0.0423,-0.0429,-0.0469,-0.0454,-0.0451,-0.0444,-0.0484,-0.0484,-0.0484,-0.0484,-0.0484,-0.0484,0,0,-0.0112,-0.0126,-0.0124,-0.0137,-0.0159,-0.0178,-0.0179,-0.021,-0.0224,-0.0248,-0.0283,-0.0316,-0.0363,-0.0393,-0.0415,-0.042,-0.0455,-0.0433,-0.0406,-0.0444,-0.0444,-0.0444,-0.0483,-0.0487,-0.0433,-0.0432,-0.0432,0,-0.0099,-0.0101,-0.0126,-0.0126,-0.0133,-0.0167,-0.0164,-0.0183,-0.0221,-0.0235,-0.0246,-0.032,-0.0354,-0.039,-0.039,-0.0413,-0.0442,-0.041,-0.044,-0.044,-0.0441,-0.0482,-0.0487,-0.043,-0.043,-0.0431,-0.0431,0,-0.0081,-0.0082,-0.008,-0.0092,-0.0102,-0.0105,-0.0132,-0.0148,-0.0169,-0.0194,-0.0232,-0.028,-0.0321,-0.0341,-0.0366,-0.0393,-0.0414,-0.043,-0.0441,-0.0438,-0.0481,-0.0487,-0.0427,-0.0428,-0.0428,-0.0429,0,0,-0.0053,-0.0065,-0.0063,-0.0064,-0.0084,-0.0093,-0.01,-0.0123,-0.0136,-0.0171,-0.019,-0.0241,-0.0268,-0.0294,-0.0333,-0.0367,-0.04,-0.0395,-0.0398,-0.0424,-0.0487,-0.0479,-0.0486,-0.0422,-0.0422,-0.0423,-0.0516,0,-0.0031,-0.0022,-0.0035,-0.0028,-0.0026,-0.0054,-0.0061,-0.0087,-0.0117,-0.0145,-0.0192,-0.0221,-0.0249,-0.0267,-0.0305,-0.0377,-0.0414,-0.0374,-0.0495,-0.0498,-0.0483,-0.0491,-0.0445,-0.0521,-0.0522,-0.0523,-0.0524,0,-0.0008,-0.0007,0.0012,-0.0002,-0.0004,0.0003,-0.0022,-0.0035,-0.0079,-0.0102,-0.0137,-0.0178,-0.0223,-0.0247,-0.0356,-0.033,-0.0397,-0.0455,-0.0461,-0.0471,-0.0501,-0.0525,-0.0533,-0.0535,-0.0534,-0.0533,-0.0532,0,0.0023,0.0023,0.004,0.0039,0.0023,0.0031,0.0023,-0.0014,-0.0042,-0.0063,-0.0094,-0.0145,-0.0187,-0.0261,-0.0371,-0.0363,-0.0502,-0.051,-0.057,-0.0571,-0.0563,-0.0561,-0.0586,-0.0586,-0.0586,-0.0586,-0.0585,0,0.0051,0.0062,0.0063,0.0074,0.0079,0.0068,0.0062,0.0045,0.0006,-0.0033,-0.0061,-0.0107,-0.0194,-0.0287,-0.0368,-0.0488,-0.05,-0.0564,-0.0592,-0.0546,-0.0542,-0.0576,-0.0574,-0.0589,-0.0588,-0.0588,-0.0587,0,0.0081,0.0086,0.0097,0.0097,0.0099,0.0106,0.0081,0.0041,0.0039,-0.0012,-0.0016,-0.0094,-0.0185,-0.0292,-0.0429,-0.0495,-0.0599,-0.0643,-0.058,-0.0598,-0.0643,-0.0637,-0.0704,-0.0705,-0.0705,-0.0705,-0.0705,0,0.0096,0.0108,0.0113,0.0093,0.0099,0.0102,0.0068,0.0063,0.0019,-0.0015,-0.0059,-0.0129,-0.0163,-0.0345,-0.0468,-0.059,-0.0629,-0.0655,-0.0622,-0.0633,-0.0654,-0.0648,-0.0642,-0.0604,-0.0603,-0.0603,-0.0603,0,0.0084,0.009,0.0072,0.0063,0.0042,0.003,0.0007,-0.0002,-0.0024,-0.0013,-0.0019,-0.0015,-0.0175,-0.0257,-0.0435,-0.0527,-0.0617,-0.0648,-0.0694,-0.0569,-0.0543,-0.0562,-0.0559,-0.0598,-0.0599,-0.0599,-0.0599,-0.0599,0.0032,0.0011,-0.002,-0.0017,-0.0036,-0.0032,-0.0014,-0.0014,0.0014,0.0069,0.0033,0.0088,-0.006,-0.022,-0.0392,-0.0579,-0.0586,-0.0635,-0.0635,-0.0636,-0.0596,-0.057,-0.0624,-0.0625,-0.0625,-0.0626,-0.0626,0,-0.0078,-0.0097,-0.0115,-0.0116,-0.0108,-0.0087,-0.0077,-0.0021,0.0081,0.0134,0.0216,0.0153,0.0052,-0.0134,-0.0382,-0.0537,-0.0547,-0.0598,-0.0567,-0.057,-0.0573,-0.0528,-0.054,-0.054,-0.054,-0.054,0,0,-0.0163,-0.0222,-0.0196,-0.0179,-0.0154,-0.0111,-0.0067,0.0057,0.0139,0.0285,0.0349,0.0363,0.0135,-0.0019,-0.0243,-0.039,-0.0448,-0.0424,-0.0476,-0.0416,-0.0417,-0.0578,-0.051,0,0,0,0,0]}],[{"header":{"parameterUnit":"m.s-1","parameterCategory":2,"la1":30.2991,"la2":30.254,"lo1":-89.0895,"lo2":-89.0444,"dy":0.0017,"dx":0.0017,"nx":28,"ny":28,"refTime":"2025-01-26T09:00:00:Z","depth":"4","parameterNumber":2,"parameterNumberName":"U-component_of_CURRENTS"},"data":[0,0,0,0,0,0,0,0,0,0,0,0,0,0,0,0,0,0,0,0,0,0,0,0,0,0,0,0,0,0,0,0,0,0,0,0,0,0,0,0,0,0,0,0,0,0,0,0,0,0,0,0,0,0,0,0,0,0,0.0929,0.093,0,0.0977,0.0977,0.0977,0.1021,0.1021,0.1022,0.1023,0.1073,0.1073,0.1074,0,0,0,0,0,0,0,0,0,0,0,0,0,0.0863,0.0864,0.0929,0.093,0.093,0.0976,0.0977,0.0978,0.1021,0.1021,0.1022,0.1023,0.1073,0.1073,0.1074,0,0,0,0,0,0,0,0,0,0,0,0,0,0.0898,0.0864,0.0929,0.0958,0.0962,0.0976,0.0977,0.0978,0.1021,0.1022,0.1022,0.1023,0.1072,0.1073,0.1074,0.1062,0,0,0.1078,0.1078,0,0,0,0,0,0,0,0,0.0896,0.09,0.0953,0.0956,0.096,0.0995,0.0972,0.1006,0.102,0.0997,0.1023,0.1024,0.1047,0.105,0.1055,0.1064,0.1067,0.1078,0.1079,0.1079,0.1079,0,0,0,0,0,0,0,0.0893,0.0898,0.0947,0.0954,0.0958,0.0965,0.0971,0.0979,0.1015,0.0999,0.1003,0.1009,0.1049,0.1054,0.1057,0.1067,0.1078,0.1079,0.108,0.108,0.113,0.1131,0,0,0,0,0,0,0.089,0.0896,0.0945,0.0948,0.0931,0.0966,0.0972,0.0982,0.1015,0.1021,0.1009,0.1011,0.1052,0.1055,0.1059,0.1109,0.1079,0.108,0.1081,0.113,0.113,0.1131,0,0,0,0,0,0,0.0888,0.0894,0.0943,0.0924,0.0931,0.0966,0.0976,0.0982,0.1008,0.1023,0.1029,0.1031,0.1053,0.1057,0.1085,0.1109,0.1081,0.1082,0.1129,0.113,0.1131,0.117,0,0,0,0,0,0,0.0886,0.0893,0.0906,0.0924,0.0932,0.0964,0.0975,0.0982,0.101,0.1015,0.1043,0.1048,0.1054,0.1084,0.1086,0.111,0.1082,0.1128,0.1129,0.113,0.1167,0.1172,0.1175,0,0,0,0,0,0.0883,0.0894,0.0906,0.0913,0.0946,0.0965,0.097,0.0997,0.1011,0.1023,0.1046,0.1048,0.1094,0.1085,0.1088,0.1113,0.1127,0.1129,0.113,0.1166,0.1171,0.1175,0,0,0,0,0,0,0.0872,0.09,0.0914,0.0933,0.0954,0.0973,0.099,0.1005,0.1032,0.1044,0.1055,0.1061,0.1095,0.1095,0.1085,0.113,0.1111,0.1113,0.1137,0.1142,0.1146,0.1146,0.1083,0,0,0,0,0,0.0874,0.0892,0.0916,0.0934,0.0947,0.0971,0.0986,0.1005,0.1026,0.1041,0.1061,0.1082,0.1099,0.1114,0.1127,0.115,0.1155,0.1167,0.1171,0.1175,0.1176,0.1205,0.1212,0.1136,0.1136,0.1136,0,0,0.0874,0.0893,0.0904,0.0933,0.0954,0.0974,0.0983,0.1011,0.1034,0.104,0.1083,0.1097,0.1107,0.1138,0.1153,0.1144,0.12,0.1177,0.118,0.1179,0.1208,0.1215,0.1222,0.1137,0.1137,0.1137,0,0,0.0877,0.0902,0.0918,0.0937,0.0972,0.0987,0.0999,0.1031,0.1055,0.1087,0.1102,0.113,0.1156,0.1173,0.1181,0.1212,0.1219,0.122,0.1245,0.1273,0.128,0.1286,0.1307,0.1314,0.1224,0.1224,0.1224,0,0.0878,0.0904,0.0925,0.0945,0.0968,0.0995,0.102,0.104,0.108,0.1102,0.1107,0.1161,0.1171,0.1209,0.1223,0.1223,0.1239,0.1227,0.1279,0.1285,0.129,0.1311,0.1319,0.1226,0.1226,0.1226,0.1225,0,0.0889,0.0918,0.093,0.0967,0.0992,0.1018,0.105,0.1082,0.1113,0.1133,0.1184,0.1202,0.1235,0.1244,0.1243,0.129,0.129,0.1281,0.1268,0.1301,0.132,0.1327,0.1229,0.1228,0.1228,0.1227,0,0,0.0871,0.0928,0.0935,0.0962,0.1011,0.103,0.1074,0.1118,0.1145,0.1189,0.1226,0.1265,0.1282,0.1292,0.1304,0.1328,0.1379,0.1325,0.1325,0.1348,0.1446,0.1352,0.1351,0.1386,0.1388,0.1389,0.1446,0,0.0878,0.0924,0.0951,0.0998,0.1027,0.1068,0.1101,0.1144,0.1178,0.1216,0.1253,0.1294,0.1298,0.1325,0.1349,0.1375,0.14,0.1364,0.1409,0.141,0.1324,0.1356,0.1393,0.1451,0.1453,0.1454,0.1455,0,0.0879,0.0915,0.0967,0.1026,0.1042,0.1074,0.1139,0.1174,0.1226,0.1257,0.1307,0.1327,0.1387,0.1373,0.1445,0.1427,0.144,0.1451,0.1453,0.1355,0.1329,0.1411,0.1468,0.1467,0.1466,0.1465,0.1465,0,0.0862,0.0923,0.0971,0.0992,0.1059,0.1098,0.114,0.1194,0.1219,0.13,0.1318,0.1387,0.1424,0.1466,0.1482,0.1483,0.1534,0.1536,0.1462,0.1456,0.1507,0.15,0.1573,0.1573,0.1573,0.1573,0.1573,0,0.0855,0.0893,0.0972,0.0998,0.1047,0.1104,0.1148,0.1203,0.1255,0.1272,0.1347,0.1365,0.1449,0.1473,0.1497,0.1495,0.1553,0.147,0.1465,0.1522,0.1516,0.1513,0.1505,0.1575,0.1575,0.1574,0.1574,0,0.0829,0.0881,0.0934,0.1017,0.1043,0.1085,0.1148,0.116,0.1241,0.1267,0.13,0.137,0.1426,0.1467,0.1527,0.15,0.1517,0.1492,0.1546,0.1543,0.1424,0.1418,0.1448,0.1445,0.1443,0.1441,0.1439,0,0.0822,0.0853,0.0939,0.0954,0.0996,0.1054,0.1072,0.1156,0.1166,0.125,0.1249,0.1323,0.1359,0.1369,0.1437,0.1481,0.146,0.1463,0.145,0.1419,0.1412,0.1409,0.1406,0.1435,0.1435,0.1434,0.1434,0,0.0804,0.0841,0.0871,0.0905,0.0936,0.096,0.1007,0.1007,0.1086,0.1156,0.1177,0.1212,0.1254,0.1316,0.1338,0.1367,0.1468,0.1438,0.1444,0.1432,0.1404,0.1399,0.1399,0.1425,0.1426,0.1427,0.1428,0,0.0777,0.0779,0.081,0.0829,0.0859,0.0861,0.0897,0.0912,0.0944,0.1043,0.1047,0.1138,0.1221,0.1255,0.1282,0.1299,0.1306,0.1282,0.1296,0.1306,0.1235,0.1177,0.1127,0,0,0,0,0,0.0742,0.0717,0.0726,0.0734,0.076,0.0788,0.0836,0.087,0.0946,0.0929,0.0988,0.1026,0.1087,0.1148,0.1144,0.1242,0.1313,0.1235,0.1292,0.1379,0.1389,0.1318,0,0,0,0,0,0,0.0702,0.0701,0.0693,0.0652,0.0648,0.0669,0.0706,0.076,0.0763,0.0853,0.0892,0.0973,0.105,0.1074,0.1125,0.1144,0.1163,0.1302,0.13,0.1373,0.1382,0.139,0.1321,0,0,0,0,0]},{"header":{"parameterUnit":"m.s-1","parameterCategory":2,"la1":30.2991,"la2":30.254,"lo1":-89.0895,"lo2":-89.0444,"dy":0.0017,"dx":0.0017,"nx":28,"ny":28,"refTime":"2025-01-26T09:00:00:Z","depth":"4","parameterNumber":3,"parameterNumberName":"V-component_of_CURRENTS"},"data":[0,0,0,0,0,0,0,0,0,0,0,0,0,0,0,0,0,0,0,0,0,0,0,0,0,0,0,0,0,0,0,0,0,0,0,0,0,0,0,0,0,0,0,0,0,0,0,0,0,0,0,0,0,0,0,0,0,0,-0.0107,-0.0107,0,-0.0133,-0.0133,-0.0133,-0.0155,-0.0155,-0.0156,-0.0156,-0.0196,-0.0197,-0.0198,0,0,0,0,0,0,0,0,0,0,0,0,0,-0.009,-0.009,-0.0107,-0.0107,-0.0108,-0.0132,-0.0133,-0.0133,-0.0155,-0.0155,-0.0156,-0.0156,-0.0196,-0.0197,-0.0198,0,0,0,0,0,0,0,0,0,0,0,0,0,-0.0105,-0.009,-0.0107,-0.0121,-0.0123,-0.0132,-0.0133,-0.0133,-0.0155,-0.0155,-0.0156,-0.0156,-0.0196,-0.0197,-0.0198,-0.02,0,0,-0.0202,-0.0203,0,0,0,0,0,0,0,0,-0.0104,-0.0106,-0.0119,-0.012,-0.0122,-0.0141,-0.0142,-0.0156,-0.0155,-0.0143,-0.0156,-0.0156,-0.0178,-0.0181,-0.0186,-0.0202,-0.0204,-0.0202,-0.0203,-0.0204,-0.0204,0,0,0,0,0,0,0,-0.0103,-0.0105,-0.0118,-0.0119,-0.0121,-0.013,-0.0133,-0.0145,-0.0159,-0.0144,-0.0146,-0.0148,-0.018,-0.0184,-0.0187,-0.0205,-0.0202,-0.0204,-0.0204,-0.0205,-0.0223,-0.0223,0,0,0,0,0,0,-0.0098,-0.0104,-0.0117,-0.0118,-0.0113,-0.013,-0.0133,-0.0135,-0.0159,-0.0163,-0.0147,-0.0149,-0.0182,-0.0185,-0.0188,-0.0196,-0.0204,-0.0205,-0.0206,-0.0223,-0.0223,-0.0222,0,0,0,0,0,0,-0.0097,-0.0099,-0.0116,-0.0111,-0.0114,-0.013,-0.0132,-0.0135,-0.0143,-0.0161,-0.0166,-0.0153,-0.0182,-0.0187,-0.0199,-0.0198,-0.0206,-0.0207,-0.0224,-0.0223,-0.0223,-0.021,0,0,0,0,0,0,-0.0097,-0.0098,-0.01,-0.0111,-0.0114,-0.012,-0.0132,-0.0135,-0.0143,-0.0145,-0.0167,-0.0171,-0.0183,-0.0196,-0.02,-0.02,-0.0208,-0.0224,-0.0223,-0.0223,-0.0211,-0.0209,-0.0208,0,0,0,0,0,-0.0096,-0.0094,-0.01,-0.0101,-0.0115,-0.012,-0.0122,-0.0135,-0.0143,-0.0144,-0.0159,-0.0171,-0.0195,-0.0197,-0.0201,-0.0202,-0.0224,-0.0223,-0.0223,-0.0212,-0.0209,-0.0208,0,0,0,0,0,0,-0.0088,-0.0096,-0.0103,-0.0104,-0.0111,-0.0123,-0.0126,-0.0135,-0.0148,-0.0151,-0.0169,-0.0174,-0.0184,-0.0192,-0.0195,-0.0204,-0.021,-0.021,-0.02,-0.0198,-0.0197,-0.0195,-0.0209,0,0,0,0,0,-0.0087,-0.0088,-0.0097,-0.0098,-0.0101,-0.0114,-0.0119,-0.0127,-0.0138,-0.0144,-0.0159,-0.0172,-0.0183,-0.019,-0.0201,-0.0208,-0.0231,-0.0209,-0.0207,-0.0206,-0.0206,-0.0235,-0.0237,-0.022,-0.022,-0.022,0,0,-0.0084,-0.0089,-0.009,-0.0097,-0.0104,-0.0103,-0.0118,-0.0123,-0.0124,-0.0146,-0.0154,-0.0169,-0.0184,-0.0191,-0.0196,-0.0199,-0.0225,-0.0205,-0.0204,-0.0205,-0.0235,-0.0237,-0.0238,-0.0219,-0.022,-0.022,0,0,-0.0074,-0.0084,-0.0078,-0.0082,-0.009,-0.0097,-0.0098,-0.011,-0.0118,-0.0125,-0.0142,-0.0156,-0.0171,-0.0183,-0.019,-0.0186,-0.0216,-0.0187,-0.0179,-0.0208,-0.021,-0.0212,-0.0255,-0.0261,-0.0186,-0.0186,-0.0186,0,-0.0071,-0.0068,-0.0078,-0.0073,-0.0079,-0.0092,-0.009,-0.0095,-0.011,-0.0125,-0.0123,-0.0158,-0.0166,-0.0186,-0.0178,-0.0183,-0.021,-0.0187,-0.0207,-0.0209,-0.0212,-0.0255,-0.0262,-0.0185,-0.0185,-0.0185,-0.0186,0,-0.0054,-0.0055,-0.0052,-0.0052,-0.0058,-0.0059,-0.0067,-0.0078,-0.009,-0.0103,-0.0128,-0.014,-0.0166,-0.0164,-0.0167,-0.0187,-0.0205,-0.0204,-0.0214,-0.0213,-0.0258,-0.0266,-0.0184,-0.0185,-0.0185,-0.0185,0,0,-0.0039,-0.0041,-0.004,-0.0053,-0.005,-0.0064,-0.006,-0.0078,-0.0101,-0.0104,-0.0135,-0.0137,-0.0157,-0.0166,-0.0177,-0.019,-0.0224,-0.0198,-0.02,-0.0245,-0.0304,-0.0265,-0.0269,-0.023,-0.023,-0.0231,-0.0334,0,-0.0026,-0.0026,-0.0023,-0.0032,-0.0042,-0.0054,-0.0061,-0.008,-0.0098,-0.0129,-0.0142,-0.0173,-0.0154,-0.0178,-0.0183,-0.0219,-0.0241,-0.0198,-0.0294,-0.0297,-0.0266,-0.0275,-0.0234,-0.0339,-0.0341,-0.0342,-0.0343,0,-0.0008,-0.002,-0.0024,-0.0056,-0.0061,-0.0066,-0.011,-0.0116,-0.0148,-0.0166,-0.0187,-0.0204,-0.0227,-0.021,-0.0263,-0.0239,-0.0267,-0.0288,-0.0293,-0.0264,-0.027,-0.0338,-0.0356,-0.0355,-0.0354,-0.0353,-0.0353,0,-0.0018,-0.0024,-0.0038,-0.0043,-0.007,-0.0087,-0.0106,-0.0136,-0.0144,-0.0199,-0.0204,-0.0251,-0.026,-0.0303,-0.0311,-0.0306,-0.0367,-0.0376,-0.0372,-0.0371,-0.0383,-0.038,-0.0418,-0.0418,-0.0418,-0.0417,-0.0417,0,-0.0014,-0.0033,-0.0051,-0.0065,-0.0109,-0.0114,-0.015,-0.0184,-0.0192,-0.0182,-0.0225,-0.021,-0.0277,-0.0299,-0.0336,-0.0363,-0.0391,-0.0375,-0.0391,-0.0377,-0.0371,-0.039,-0.0385,-0.0421,-0.042,-0.042,-0.0419,0,-0.0046,-0.0033,-0.0075,-0.0108,-0.0116,-0.0162,-0.0168,-0.0167,-0.019,-0.0171,-0.0181,-0.0194,-0.0224,-0.0283,-0.0357,-0.0377,-0.0431,-0.0433,-0.0421,-0.0433,-0.0424,-0.0417,-0.0479,-0.0478,-0.0478,-0.0477,-0.0477,0,-0.0072,-0.0087,-0.013,-0.0127,-0.0144,-0.0179,-0.0165,-0.0182,-0.0146,-0.0128,-0.0092,-0.0128,-0.0136,-0.0219,-0.0296,-0.0412,-0.0401,-0.0462,-0.0434,-0.0419,-0.0429,-0.0423,-0.0417,-0.0476,-0.0476,-0.0476,-0.0476,0,-0.0145,-0.0152,-0.018,-0.0155,-0.0144,-0.0143,-0.0115,-0.0091,-0.0056,-0.0075,-0.0011,-0.0056,-0.0084,-0.0175,-0.0263,-0.0331,-0.045,-0.0457,-0.0459,-0.0433,-0.0417,-0.0425,-0.042,-0.0474,-0.0474,-0.0474,-0.0474,0,-0.0208,-0.0221,-0.0193,-0.0175,-0.0143,-0.0069,-0.0089,-0.0006,0.0015,0.0055,0.0079,0.003,-0.0015,-0.013,-0.0198,-0.0281,-0.0305,-0.0343,-0.0351,-0.0355,-0.0273,-0.0231,-0.0247,0,0,0,0,0,-0.0246,-0.0197,-0.0184,-0.013,-0.0088,-0.0056,-0.0001,0.0008,0.0042,0.0103,0.0095,0.0076,-0.0022,-0.0072,-0.0146,-0.0204,-0.0334,-0.0296,-0.0386,-0.0464,-0.0466,-0.0386,0,0,0,0,0,0,-0.0253,-0.0227,-0.0175,-0.0068,-0.0018,0.0051,0.0082,0.0095,0.013,0.0137,0.0089,0.0051,-0.0051,0.0025,-0.0148,-0.0176,-0.0244,-0.0352,-0.0354,-0.0462,-0.0464,-0.0466,-0.0384,0,0,0,0,0]}]]